Regional Weather Roundup
Issued by NWS

Home | Current Version | Previous Version | Graphics & Text | Print | Product List | Glossary On
Versions: 1 2 3 4 5 6 7 8 9 10 11 12 13 14 15 16 17 18 19 20 21 22 23 24 25 26 27 28 29 30 31 32 33 34 35 36 37 38 39 40 41 42 43 44 45 46 47 48 49 50
000
ASUS43 KMPX 240101
RWRMN
WEATHER ROUNDUP FOR MINNESOTA
NATIONAL WEATHER SERVICE TWIN CITIES/CHANHASSEN MN
800 PM CDT TUE SEP 23 2014


NOTE: "FAIR" INDICATES FEW OR NO CLOUDS BELOW 12,000 FEET WITH NO
SIGNIFICANT WEATHER AND/OR OBSTRUCTIONS TO VISIBILITY. N/A MEANS
CURRENT SKY AND/OR WEATHER CONDITIONS ARE NOT AVAILABLE.

MNZ060>063-068>070-240200-
   Twin Cities Metro

CITY           SKY/WX    TMP DP  RH WIND       PRES   REMARKS
TWIN CITIES    MOCLDY    66  52  60 SE8       30.14S
ST PAUL        MOCLDY    66  53  63 SE8       30.15R
CRYSTAL        MOCLDY    68  50  52 SE7       30.12S
LAKEVILLE      CLOUDY    63  52  67 SE6       30.15R
EDEN PRAIRIE   CLOUDY    66  51  58 SE8       30.13R
SOUTH ST PAUL  MOCLDY    67  52  57 SE5       30.15R
LAKE ELMO      FAIR      64  52  63 SE6       30.16S
$$
MNZ001>005-007-008-013>017-022>024-027-028-240200-
   Northwest Minnesota

CITY           SKY/WX    TMP DP  RH WIND       PRES   REMARKS
BEMIDJI        MOCLDY    62  52  69 S7        30.08S
HALLOCK        PTCLDY    68  48  49 S20G28    29.98R
ROSEAU         MOCLDY    63  54  72 SE6       30.02R
WARROAD        MOCLDY    64  55  72 S5        30.03R
THIEF RVR FALL MOCLDY    64  50  59 S14       30.04R
CROOKSTON      MOCLDY    64  52  63 S16G23    30.04R
FOSSTON        CLOUDY    59  50  72 CALM      30.07S
DETROIT LAKES  MOCLDY    61  54  77 SE5       30.07F
MOORHEAD       MOCLDY    61  54  77 SE3       30.04F
PARK RAPIDS    PTCLDY    63  52  67 SE7       30.08F
MAHNOMEN       FAIR      61  52  73 S3        30.06F
$$
MNZ006-009>011-018-025>026-240200-
   North Central Minnesota

CITY           SKY/WX    TMP DP  RH WIND       PRES   REMARKS
BAUDETTE       PTCLDY    64  51  62 S3        30.05R
FLAG ISLAND    CLEAR     63  57  82 S8        30.01R
INTL FALLS     CLEAR     62  51  67 VRB5      30.09R
WASKISH        MOCLDY    61  54  77 CALM      30.07S
LONGVILLE      MOCLDY    57  54  88 CALM      30.11S
GRAND RAPIDS   PTCLDY    57  48  72 S7        30.13R
CRANE LAKE     CLEAR     54  52  94 CALM      30.13R
ORR            PTCLDY    59  48  67 CALM      30.11R
COOK           PTCLDY    61  52  72 SE5       30.14R
WALKER         FAIR      63  52  67 SE5       30.09S
$$
MNZ012-019>021-037-240200-
   Northeast Minnesota

CITY           SKY/WX    TMP DP  RH WIND       PRES   REMARKS
DULUTH         MOCLDY    63  51  65 SE7       30.16R
ELY            CLEAR     61  48  63 S6        30.16R
HIBBING        MOCLDY    58  50  75 SE6       30.14R
EVELETH        MOCLDY    57  50  77 SE3       30.16R
DULUTH HARBOR  MOCLDY    57  55  94 NE6       30.16R
TWO HARBORS    PTCLDY    55  50  82 CALM      30.16R
SILVER BAY     PTCLDY    52  52 100 CALM      30.16R
GRAND MARAIS     N/A     52  50  93 CALM      30.18R
G MARAIS ARPRT CLEAR     52  46  82 CALM      30.21R
$$
MNZ029>031-032-039>041-046>048-054>057-064-240200-
   West Central Minnesota

CITY           SKY/WX    TMP DP  RH WIND       PRES   REMARKS
FERGUS FALLS   CLOUDY    63  52  67 S18       30.07R
WHEATON        DRIZZLE   55  52  88 SE14G21   30.07S
MORRIS         DRIZZLE   57  55  94 SE10      30.07S
ALEXANDRIA     CLOUDY    58  54  86 S16       30.12R
ELBOW LAKE     CLOUDY    58  53  81 SE17      30.07S
WADENA         CLOUDY    63  54  72 SE6       30.08S
GLENWOOD       DRIZZLE   57  54  88 SE6       30.12S
APPLETON       LGT RAIN  59  55  88 SE8       30.07S
BENSON         LGT RAIN  57  55  94 S8        30.09S
ORTONVILLE     LGT RAIN  57  54  88 SE9G17    30.05S
MADISON        LGT RAIN  61  57  88 SE7       30.06S
WILLMAR        CLOUDY    61  55  82 SE6       30.12S
$$
MNZ033>034-036-042>043-049>051-058-059-240200-
   Central Minnesota

CITY           SKY/WX    TMP DP  RH WIND       PRES   REMARKS
ST CLOUD       CLOUDY    68  54  60 SE6       30.11S
SAUK CENTRE    CLOUDY    58  54  86 S5        30.12R
PAYNESVILLE    CLOUDY    59  52  78 SE3       30.12S
AITKIN         PTCLDY    63  54  72 CALM      30.12R
PINE RIVER     PTCLDY    61  54  77 SE5       30.14R
BRAINERD       PTCLDY    60  52  74 SE3       30.12R
STAPLES        CLOUDY    63  52  67 CALM      30.09S
LONG PRAIRIE   LGT RAIN  59  52  77 S9        30.13R
LITTLE FALLS   CLOUDY    64  52  63 E6        30.11S
LITCHFIELD       N/A     64  54  68 S3        30.13R
BUFFALO        CLOUDY    66  51  57 SE6       30.13S
MAPLE LAKE     CLOUDY    67  55  64 SE3       30.13R
$$
MNZ037-044-045-052-053-240200-
   East Central Minnesota

CITY           SKY/WX    TMP DP  RH WIND       PRES   REMARKS
PRINCETON      MOCLDY    64  54  68 E5        30.13R
MORA           PTCLDY    59  50  72 E3        30.16R
CAMBRIDGE      PTCLDY    66  52  59 SE5       30.12S
RUSH CITY      PTCLDY    60  52  75 CALM      30.15R
MOOSE LAKE     PTCLDY    55  52  88 CALM      30.14R
HINCKLEY       FAIR      63  52  67 SE5       30.15R
CLOQUET        PTCLDY    63  50  63 CALM      30.16R
MCGREGOR       PTCLDY    59  52  77 SE5       30.14S
$$
MNZ071>073-080-081-089-090-097-098-240200-
   Southwest Minnesota

CITY           SKY/WX    TMP DP  RH WIND       PRES   REMARKS
MONTEVIDEO     LGT RAIN  57  57 100 S9        30.08S
GRANITE FALLS  CLOUDY    60  55  85 E10       30.09S
CANBY          CLOUDY    57  56  95 SE6       30.06S
MARSHALL       CLOUDY    61  52  72 SE10      30.06S
REDWOOD FALLS  CLOUDY    63  53  70 SE14      30.09F
OLIVIA         CLOUDY    63  52  67 SE9       30.10S
PIPESTONE      CLOUDY    61  54  77 S13G21    30.06R
WINDOM         LGT RAIN  61  54  77 S13G18    30.12R
WORTHINGTON    CLOUDY    57  54  88 SE10G17   30.10S
JACKSON        CLOUDY    61  52  72 S8        30.13R
TRACY          CLOUDY    62  52  70 S9G17     30.08S
SLAYTON        MOCLDY    59  53  79 SE16      30.09R
$$
MNZ065>067-074>077-082>085-091>093-240200-
   South Central Minnesota

CITY           SKY/WX    TMP DP  RH WIND       PRES   REMARKS
MANKATO        CLOUDY    64  46  52 S6        30.13S
NEW ULM        CLOUDY    61  55  82 SE8       30.12S
ST JAMES       CLOUDY    63  55  77 SE8       30.13R
FAIRMONT       CLOUDY    61  48  63 SE13      30.12R
GLENCOE        CLOUDY    67  51  57 CALM      30.12R
FARIBAULT      CLOUDY    68  48  49 SE7       30.16R
OWATONNA       CLOUDY    64  52  63 SE7       30.16R
WASECA         CLOUDY    61  46  59 SE6       30.16S
ALBERT LEA     CLOUDY    64  52  63 S7        30.17R
$$
MNZ078>079-086>088-094>096-240200-
   Southeast Minnesota

CITY           SKY/WX    TMP DP  RH WIND       PRES   REMARKS
ROCHESTER      CLOUDY    60  51  72 SE7       30.20S
RED WING       MOCLDY    64  52  63 SE7       30.16R
STANTON        CLOUDY    66  50  55 SE7       30.15R
DODGE CENTER   CLOUDY    63  52  67 SE7       30.18R
WINONA         MOCLDY    61  52  72 CALM      30.20R
AUSTIN         CLOUDY    64  48  55 SE7       30.17S
PRESTON        CLOUDY    62  55  77 SE6       30.21R
$$
ABBREVIATIONS USED IN REMARKS
   TC - TEMPERATURES IN CELSIUS
  WCI - WIND CHILL INDEX
   HX - HEAT INDEX
  VSB - VISIBILITY
$$



USA.gov is the U.S. government's official web portal to all federal, state and local government web resources and services.